Tiempo atmosférico en la estación meteorológica de Guadalcanal, Sevilla (745 m.)



Fecha
DESCASC
Temp. máxima en grados centígrados (hora)
DESCASC
Temp. mínima en grados centígrados (hora)
DESCASC
Temp. media en grados centígrados
DESCASC
Racha de viento máxima en m/sg (hora)
DESCASC
Velocidad máxima media en intervalos de 10 minutos(hora)
DESCASC
Precipitaciones diarias en mm
DESCASC
Precipitaciones de 00:00 a 06:00 en mm
DESCASC
Precipitaciones de 06:00 a 12:00 en mm
DESCASC
Precipitaciones de 12:00 a 18:00 en mm
DESCASC
Precipitaciones de 18:00 a 24:00 en mm
DESCASC
16-01-2020 13.9 (15:20) 6.3 (08:30) 10.1 10 (14:40) 5.83 (14:50) 0 0 0 0 0
15-01-2020 9.8 (16:20) 4.9 (04:00) 7.4 11.11 (07:50) 7.5 (07:50) 0.2 0 0 0 0.2
14-01-2020 10.2 (14:50) 2.4 (09:10) 6.3 7.78 (18:10) 4.72 (18:00) 0 0 0 0 0
13-01-2020 11.9 (16:20) 2.3 (08:30) 7.1 6.11 (13:00) 3.89 (13:00) 0 0 0 0 0
12-01-2020 12.2 (15:50) 3.1 (07:00) 7.6 5.28 (20:20) 3.61 (21:30) 0 0 0 0 0
11-01-2020 11.8 (16:10) 2.5 (00:00) 7.2 6.67 (05:30) 3.89 (07:30) 0 0 0 0 0
10-01-2020 10.6 (15:20) 3 (00:00) 6.8 7.78 (12:20) 5.28 (12:10) 0 0 0 0 0
09-01-2020 13.6 (16:10) 5 (00:00) 9.3 8.06 (22:00) 4.44 (22:00) 0 0 0 0 0
08-01-2020 18.2 (16:20) 7.7 (00:00) 13 7.5 (01:00) 5.56 (01:20) 0 0 0 0 0
07-01-2020 15.1 (16:10) 5.6 (00:00) 10.4 6.39 (22:20) 5 (00:30) 0 0 0 0 0
06-01-2020 13.9 (15:50) 4.4 (00:00) 9.1 6.39 (23:40) 4.72 (22:00) 0 0 0 0 0
05-01-2020 12.1 (16:20) 4.8 (00:00) 8.5 6.39 (13:10) 4.17 (13:20) 0 0 0 0 0
04-01-2020 10 (16:10) 2.2 (00:00) 6.1 9.72 (03:30) 6.67 (08:40) 0 0 0 0 0
03-01-2020 9.4 (17:10) 4.9 (00:00) 7.1 7.5 (23:00) 5 (22:50) 0 0 0 0 0
02-01-2020 13.6 (16:20) 5.1 (00:00) 9.4 5.28 (12:40) 3.61 (12:40) 0 0 0 0 0
01-01-2020 16.6 (15:40) 6.2 (00:00) 11.4 3.89 (21:50) 2.78 (22:00) 0 0 0 0 0
31-12-2019 15.1 (15:10) 5.6 (00:00) 10.4 4.72 (11:10) 3.33 (10:50) 0 0 0 0 0
30-12-2019 -- (--) -- (--) -- -- (--) -- (--) -- 0 0 0 --
29-12-2019 17.3 (12:20) 7 (00:00) 12.1 6.39 (04:00) 3.61 (04:10) 0 0 0 0 0
28-12-2019 21.4 (16:20) 11 (00:00) 16.2 5.83 (04:00) 4.44 (09:10) 0 0 0 0 0
27-12-2019 19.6 (13:10) 10.7 (00:00) 15.2 6.11 (21:50) 4.72 (22:00) 0 0 0 0 0
26-12-2019 16.3 (15:00) 11.4 (00:00) 13.8 8.61 (02:40) 5.83 (02:30) 0 0 0 0 0
25-12-2019 20.3 (16:00) 10.1 (00:00) 15.2 5 (15:00) 3.06 (12:40) 0 0 0 0 0
24-12-2019 21.2 (15:10) 11 (21:40) 16.1 8.06 (11:50) 4.17 (10:20) 0 0 0 0 0
23-12-2019 14.9 (15:30) 6.9 (00:00) 10.9 5.28 (00:30) 3.89 (23:10) 0 0 0 0 0
22-12-2019 14.3 (15:10) 8.3 (08:40) 11.3 8.89 (06:00) 5 (15:50) 0 0 0 0 0
21-12-2019 14.7 (15:30) 8.9 (23:40) 11.8 15 (16:20) 7.78 (02:50) 7.6 0.6 0.6 6.4 0
20-12-2019 13.6 (19:10) 12.9 (00:00) 13.3 21.11 (00:10) 12.78 (00:10) 49.6 23 13.8 4 8.8

Gráficas

Temp. máximas Temp. mínimas Temp. medias Precipitaciones Rachas de viento máximas Velocidades máximas media en intervalos de 10 minutos

Datos horarios

Fecha y hora oficial Temperatura (ºC) Velocidad del viento (km/h) Dirección del viento Racha (km/h) Dirección de racha Precipitación (mm) Presión (hPa) Tendencia (hPa) Humedad (%)
2020-01-18 23:00:00 9.3 13 Noroeste 39 Oeste 0 -- -- 100
2020-01-18 22:00:00 9.6 12 Oeste 23 Sudoeste 0 -- -- 100
2020-01-18 21:00:00 9.5 8 Sudoeste 15 Sudoeste 0.2 -- -- 100
2020-01-18 20:00:00 10 10 Sudoeste 19 Oeste 0 -- -- 100
2020-01-18 19:00:00 10.4 7 Sudoeste 21 Oeste 0 -- -- 100
2020-01-18 18:00:00 10.5 9 Sudoeste 15 Sudoeste 0 -- -- 100
2020-01-18 17:00:00 10.3 9 Sudoeste 20 Sudoeste 0.2 -- -- 100
2020-01-18 16:00:00 10 12 Sudoeste 22 Sudoeste 0.8 -- -- 100
2020-01-18 15:00:00 9.9 17 Sudoeste 27 Sudoeste 1.2 -- -- 100
2020-01-18 14:00:00 9.5 14 Sudoeste 24 Sudoeste 0.8 -- -- 100
2020-01-18 13:00:00 9.1 17 Sudoeste 32 Sudoeste 2 -- -- 99
2020-01-18 12:00:00 8.8 21 Sudoeste 37 Sudoeste 2 -- -- 98
2020-01-18 11:00:00 8.9 23 Sudoeste 33 Sudoeste 0.4 -- -- 98
2020-01-18 10:00:00 8.5 18 Sudoeste 39 Sudoeste 1 -- -- 97
2020-01-18 09:00:00 8.2 21 Sudoeste 30 Sur 2.2 -- -- 93
2020-01-18 08:00:00 8.3 14 Sudoeste 23 Sudoeste 1 -- -- 89
2020-01-18 07:00:00 8.7 6 Sudoeste 15 Sudoeste 0.2 -- -- 89
2020-01-18 06:00:00 9.3 9 Sudoeste 19 Sur 0 -- -- 80
2020-01-18 05:00:00 9.6 10 Sudoeste 16 Sur 0 -- -- 82
2020-01-18 04:00:00 9.4 5 Sudoeste 10 Sur 0 -- -- 83
2020-01-18 03:00:00 9.4 7 Sudoeste 10 Sudoeste 0 -- -- 82
2020-01-18 02:00:00 8.8 5 Sudoeste 9 Sudoeste 0 -- -- 84
2020-01-18 01:00:00 7.6 0 Calma 4 Oeste 0 -- -- 90
2020-01-18 00:00:00 6.9 0 Calma 2 Norte 0 -- -- 90
2020-01-17 23:00:00 7.5 0 Calma 6 Nordeste 0 -- -- 87
2020-01-17 22:00:00 8.5 5 Nordeste 10 Nordeste 0 -- -- 84
2020-01-17 21:00:00 9.2 8 Norte 10 Norte 0 -- -- 81
2020-01-17 20:00:00 9.1 5 Norte 10 Norte 0 -- -- 81
2020-01-17 19:00:00 10.4 7 Norte 12 Norte 0 -- -- 77
2020-01-17 18:00:00 11.5 8 Norte 13 Norte 0 -- -- 73
2020-01-17 17:00:00 13 6 Norte 17 Norte 0 -- -- 67
2020-01-17 16:00:00 13 9 Norte 19 Norte 0 -- -- 66
2020-01-17 15:00:00 13 8 Nordeste 17 Norte 0 -- -- 65
2020-01-17 14:00:00 13.4 8 Norte 17 Nordeste 0 -- -- 70
2020-01-17 13:00:00 13.1 7 Sudoeste 13 Sur 0 -- -- 80
2020-01-17 12:00:00 10.9 6 Nordeste 9 Norte 0 -- -- 84
2020-01-17 11:00:00 10.3 2 Oeste 8 Sudoeste 0 -- -- 94
2020-01-17 10:00:00 9.2 5 Oeste 10 Oeste 0 -- -- 98
2020-01-17 09:00:00 8.5 4 Oeste 9 Oeste 0 -- -- 98
2020-01-17 08:00:00 8.9 4 Sudoeste 11 Oeste 0 -- -- 98
2020-01-17 07:00:00 9 4 Sudoeste 9 Oeste 0 -- -- 98
2020-01-17 06:00:00 8.9 6 Sudoeste 20 Oeste 0 -- -- 98
2020-01-17 05:00:00 9 9 Sudoeste 22 Sudoeste 0.2 -- -- 98
2020-01-17 04:00:00 9.2 14 Sudoeste 28 Sudoeste 0 -- -- 97
2020-01-17 03:00:00 9.1 16 Sudoeste 27 Sudoeste 0 -- -- 96
2020-01-17 02:00:00 9.1 16 Sudoeste 34 Sudoeste 0 -- -- 94
2020-01-17 01:00:00 9.3 19 Sudoeste 31 Sudoeste 0 -- -- 90
2020-01-17 00:00:00 9.3 15 Sudoeste 28 Sudoeste 0 -- -- 83
2020-01-16 23:00:00 9.2 18 Sudoeste 33 Sudoeste 0 -- -- 74
2020-01-16 22:00:00 9.4 20 Sudoeste 31 Sudoeste 0 -- -- 61
2020-01-16 21:00:00 9.5 18 Sudoeste 30 Sudoeste 0 -- -- 63
2020-01-16 20:00:00 9.4 14 Sudoeste 26 Sudoeste 0 -- -- 68
2020-01-16 19:00:00 10.2 18 Sudoeste 28 Sudoeste 0 -- -- 62
2020-01-16 18:00:00 11.3 17 Sudoeste 29 Sudoeste 0 -- -- 53
2020-01-16 17:00:00 13.4 15 Sudoeste 30 Sudoeste 0 -- -- 49
2020-01-16 16:00:00 13.8 17 Sudoeste 31 Sudoeste 0 -- -- 50
2020-01-16 15:00:00 13.7 18 Sudoeste 36 Sudoeste 0 -- -- 49
2020-01-16 14:00:00 13.6 18 Sudoeste 30 Sudoeste 0 -- -- 49
2020-01-16 13:00:00 12.6 17 Sudoeste 26 Sudoeste 0 -- -- 60
2020-01-16 12:00:00 11.8 13 Sudoeste 22 Sur 0 -- -- 68
2020-01-16 11:00:00 9.6 13 Sudoeste 20 Sudoeste 0 -- -- 81
2020-01-16 10:00:00 8 7 Sudoeste 12 Sudoeste 0 -- -- 95
2020-01-16 09:00:00 6.4 3 Sudoeste 12 Sudoeste 0 -- -- 99
2020-01-16 08:00:00 6.8 3 Sudoeste 11 Sudoeste 0 -- -- 98
2020-01-16 07:00:00 7.8 7 Sudoeste 11 Sudoeste 0 -- -- 98
2020-01-16 06:00:00 7.3 7 Sudoeste 10 Sudoeste 0 -- -- 98
2020-01-16 05:00:00 8.1 7 Sur 17 Sudoeste 0 -- -- 98
2020-01-16 04:00:00 8.4 10 Sudoeste 18 Sur 0 -- -- 99
2020-01-16 03:00:00 8.4 8 Sudoeste 17 Sudoeste 0 -- -- 98
2020-01-16 02:00:00 9.1 13 Sudoeste 23 Sudoeste 0 -- -- 98
2020-01-16 01:00:00 9.3 14 Sudoeste 26 Sur 0 -- -- 98
2020-01-16 00:00:00 9.4 14 Sudoeste 24 Sur 0 -- -- 97
2020-01-15 23:00:00 9.8 15 Sudoeste 25 Sur 0 -- -- 97
2020-01-15 22:00:00 9.7 12 Sur 20 Sur 0 -- -- 96
2020-01-15 21:00:00 9.6 12 Sur 24 Sudoeste 0 -- -- 96
2020-01-15 20:00:00 9.8 19 Sudoeste 29 Sur 0 -- -- 96
2020-01-15 19:00:00 9.7 16 Sur 28 Sur 0.2 -- -- 95
2020-01-15 18:00:00 9.7 14 Sur 27 Sur 0 -- -- 94
2020-01-15 17:00:00 9.6 12 Sur 22 Sudoeste 0 -- -- 94
2020-01-15 16:00:00 9.7 12 Sudoeste 26 Sudoeste 0 -- -- 94
2020-01-15 15:00:00 9.6 13 Sudoeste 32 Sudoeste 0 -- -- 94
2020-01-15 14:00:00 9.4 21 Sudoeste 33 Sudoeste 0 -- -- 93
2020-01-15 13:00:00 9.2 19 Sur 34 Sur 0 -- -- 93
2020-01-15 12:00:00 8.5 18 Sudoeste 35 Sur 0 -- -- 94
2020-01-15 11:00:00 7.6 17 Sur 36 Sudoeste 0 -- -- 92
2020-01-15 10:00:00 7 17 Sudoeste 31 Sudoeste 0 -- -- 91
2020-01-15 09:00:00 6.8 21 Sudoeste 37 Sur 0 -- -- 90
2020-01-15 08:00:00 6.5 25 Sudoeste 40 Sudoeste 0 -- -- 89
2020-01-15 07:00:00 5.8 17 Sudoeste 27 Sudoeste 0 -- -- 89
2020-01-15 06:00:00 6.1 12 Sudoeste 24 Sur 0 -- -- 87
2020-01-15 05:00:00 6.2 12 Sudoeste 28 Sudoeste 0 -- -- 87
2020-01-15 04:00:00 4.9 5 Sudoeste 12 Sur 0 -- -- 92
2020-01-15 03:00:00 5.7 6 Sudoeste 19 Sudoeste 0 -- -- 90
2020-01-15 02:00:00 6.2 8 Sudoeste 17 Sudoeste 0 -- -- 91
2020-01-15 01:00:00 6.3 10 Sudoeste 17 Sudoeste 0 -- -- 93
2020-01-15 00:00:00 6.1 10 Sudoeste 20 Sudoeste 0 -- -- 91
2020-01-14 23:00:00 6.3 14 Sudoeste 23 Sudoeste 0 -- -- 89
2020-01-14 22:00:00 6.6 13 Sudoeste 21 Sudoeste 0 -- -- 86
2020-01-14 21:00:00 6.6 10 Sudoeste 19 Sudoeste 0 -- -- 83
2020-01-14 20:00:00 6.5 14 Sudoeste 21 Sudoeste 0 -- -- 83
2020-01-14 19:00:00 7 15 Sudoeste 28 Sudoeste 0 -- -- 82
2020-01-14 18:00:00 8.1 17 Sudoeste 26 Sudoeste 0 -- -- 79
2020-01-14 17:00:00 8.9 9 Sudoeste 18 Sudoeste 0 -- -- 73
2020-01-14 16:00:00 9.7 10 Sudoeste 17 Sudoeste 0 -- -- 72
2020-01-14 15:00:00 10.1 7 Sudoeste 17 Oeste 0 -- -- 73
2020-01-14 14:00:00 9.7 9 Sudoeste 15 Sur 0 -- -- 73
2020-01-14 13:00:00 9.5 8 Sudoeste 15 Sudoeste 0 -- -- 72
2020-01-14 12:00:00 9.1 5 Sudoeste 10 Sur 0 -- -- 76
2020-01-14 11:00:00 7.1 4 Sur 6 Sudoeste 0 -- -- 85
2020-01-14 10:00:00 4.1 0 Calma 2 Sudeste 0 -- -- 97
2020-01-14 09:00:00 2.5 0 Calma 4 Este 0 -- -- 95
2020-01-14 08:00:00 2.7 2 Nordeste 5 Nordeste 0 -- -- 95
2020-01-14 07:00:00 2.9 3 Norte 8 Norte 0 -- -- 94
2020-01-14 06:00:00 2.9 4 Norte 6 Nordeste 0 -- -- 95
2020-01-14 05:00:00 2.6 3 Norte 6 Nordeste 0 -- -- 94
2020-01-14 04:00:00 2.9 3 Norte 6 Norte 0 -- -- 94
2020-01-14 03:00:00 3.3 3 Norte 5 Norte 0 -- -- 95
2020-01-14 02:00:00 3.6 4 Norte 6 Norte 0 -- -- 95
2020-01-14 01:00:00 5.4 0 Calma 6 Noroeste 0 -- -- 96
2020-01-14 00:00:00 4.6 2 Oeste 12 Sudoeste 0 -- -- 95
2020-01-13 23:00:00 3.9 5 Sudoeste 6 Sudoeste 0 -- -- 93
2020-01-13 22:00:00 4.3 0 Calma 3 Sur 0 -- -- 90
2020-01-13 21:00:00 5.7 2 Sur 9 Sudoeste 0 -- -- 87
2020-01-13 20:00:00 5.9 4 Sur 9 Sur 0 -- -- 84
2020-01-13 19:00:00 7.1 0 Calma 6 Sudoeste 0 -- -- 73
2020-01-13 18:00:00 10 3 Sudoeste 13 Sudoeste 0 -- -- 60
2020-01-13 17:00:00 11.4 6 Sudoeste 15 Sudoeste 0 -- -- 61
2020-01-13 16:00:00 11.8 7 Sudoeste 19 Sudoeste 0 -- -- 60
2020-01-13 15:00:00 11.1 11 Sudoeste 18 Sudoeste 0 -- -- 61
2020-01-13 14:00:00 10.4 12 Sudoeste 22 Sudoeste 0 -- -- 62
2020-01-13 13:00:00 9.7 14 Sudoeste 22 Sudoeste 0 -- -- 65
2020-01-13 12:00:00 9.4 10 Sudoeste 16 Sudoeste 0 -- -- 67
2020-01-13 11:00:00 7.3 5 Sudoeste 8 Sudoeste 0 -- -- 75
2020-01-13 10:00:00 4.7 0 Calma 3 Sur 0 -- -- 82
2020-01-13 09:00:00 2.5 2 Nordeste 5 Oeste 0 -- -- 90
2020-01-13 08:00:00 3.2 4 Oeste 6 Sudoeste 0 -- -- 88
2020-01-13 07:00:00 2.9 2 Sudoeste 4 Sudoeste 0 -- -- 85
2020-01-13 06:00:00 2.6 0 Calma 3 Sudoeste 0 -- -- 83
2020-01-13 05:00:00 2.6 0 Calma 2 Noroeste 0 -- -- 80
2020-01-13 04:00:00 -- 0 Calma 3 Nordeste 0 -- -- --
2020-01-13 03:00:00 4.1 3 Nordeste 5 Sudeste 0 -- -- 78
2020-01-13 02:00:00 4.1 0 Calma 7 Nordeste 0 -- -- 83
2020-01-13 01:00:00 3.8 7 Nordeste 9 Nordeste 0 -- -- 83
2020-01-13 00:00:00 4.4 7 Nordeste 10 Nordeste 0 -- -- 82
2020-01-12 23:00:00 5.6 8 Nordeste 14 Norte 0 -- -- 79
2020-01-12 22:00:00 6.2 11 Nordeste 16 Nordeste 0 -- -- 78
2020-01-12 21:00:00 6.8 12 Nordeste 19 Norte 0 -- -- 75
2020-01-12 20:00:00 7.8 11 Norte 17 Norte 0 -- -- 69
2020-01-12 19:00:00 8.2 6 Norte 11 Norte 0 -- -- 59
2020-01-12 18:00:00 10.3 8 Norte 12 Nordeste 0 -- -- 52
2020-01-12 17:00:00 11.6 8 Nordeste 14 Norte 0 -- -- 49
2020-01-12 16:00:00 12 9 Nordeste 15 Norte 0 -- -- 44
2020-01-12 15:00:00 11.9 10 Norte 15 Norte 0 -- -- 48
2020-01-12 14:00:00 11.6 3 Oeste 8 Sudoeste 0 -- -- 54
2020-01-12 13:00:00 11.4 5 Sudoeste 10 Nordeste 0 -- -- 54
2020-01-12 12:00:00 9.8 6 Nordeste 12 Nordeste 0 -- -- 61
2020-01-12 11:00:00 8.6 5 Nordeste 9 Nordeste 0 -- -- 63
2020-01-12 10:00:00 5.5 2 Nordeste 8 Nordeste 0 -- -- 78
2020-01-12 09:00:00 3.3 6 Nordeste 8 Nordeste 0 -- -- 82
2020-01-12 08:00:00 4 6 Norte 8 Norte 0 -- -- 74
2020-01-12 07:00:00 3.1 5 Nordeste 8 Norte 0 -- -- 75
2020-01-12 06:00:00 3.7 4 Nordeste 8 Nordeste 0 -- -- 78
2020-01-12 05:00:00 3.3 5 Nordeste 8 Nordeste 0 -- -- 82
2020-01-12 04:00:00 4.1 6 Nordeste 9 Norte 0 -- -- 79
2020-01-12 03:00:00 3.9 7 Nordeste 9 Norte 0 -- -- 82
2020-01-12 02:00:00 4 8 Nordeste 10 Norte 0 -- -- 81
2020-01-12 01:00:00 4.8 8 Nordeste 11 Nordeste 0 -- -- 78
2020-01-12 00:00:00 5.9 9 Nordeste 12 Norte 0 -- -- 75
2020-01-11 23:00:00 5.8 8 Nordeste 11 Nordeste 0 -- -- 75
2020-01-11 22:00:00 6.5 9 Norte 12 Norte 0 -- -- 73
2020-01-11 21:00:00 6.6 8 Nordeste 11 Nordeste 0 -- -- 72
2020-01-11 20:00:00 7.2 8 Nordeste 12 Nordeste 0 -- -- 70
2020-01-11 19:00:00 7.6 9 Nordeste 11 Nordeste 0 -- -- 67
2020-01-11 18:00:00 10 6 Nordeste 12 Nordeste 0 -- -- 61
2020-01-11 17:00:00 11.2 6 Nordeste 13 Norte 0 -- -- 56
2020-01-11 16:00:00 11.5 4 Nordeste 16 Nordeste 0 -- -- 55
2020-01-11 15:00:00 10.7 7 Nordeste 17 Nordeste 0 -- -- 58
2020-01-11 14:00:00 9.7 8 Norte 17 Nordeste 0 -- -- 62
2020-01-11 13:00:00 8.4 11 Nordeste 19 Nordeste 0 -- -- 67
2020-01-11 12:00:00 6.9 9 Nordeste 21 Nordeste 0 -- -- 70
2020-01-11 11:00:00 4.9 12 Nordeste 22 Norte 0 -- -- 75
2020-01-11 10:00:00 3.5 11 Nordeste 21 Norte 0 -- -- 79
2020-01-11 09:00:00 2.5 14 Nordeste 19 Norte 0 -- -- 80
2020-01-11 08:00:00 2.7 10 Nordeste 21 Norte 0 -- -- 78
2020-01-11 07:00:00 3.2 13 Nordeste 21 Norte 0 -- -- 76
2020-01-11 06:00:00 3.5 12 Norte 24 Norte 0 -- -- 74
2020-01-11 05:00:00 3.9 10 Nordeste 18 Nordeste 0 -- -- 73
2020-01-11 04:00:00 4 7 Nordeste 18 Nordeste 0 -- -- 72
2020-01-11 03:00:00 4.3 5 Nordeste 19 Nordeste 0 -- -- 71
2020-01-11 02:00:00 4.6 7 Nordeste 16 Nordeste 0 -- -- 70
2020-01-11 01:00:00 4.7 8 Nordeste 15 Nordeste 0 -- -- 70
2020-01-11 00:00:00 4.8 5 Nordeste 16 Norte 0 -- -- 70
2020-01-10 23:00:00 4.7 8 Nordeste 17 Norte 0 -- -- 73
2020-01-10 22:00:00 4.9 7 Nordeste 19 Nordeste 0 -- -- 80
2020-01-10 21:00:00 5.5 7 Nordeste 25 Nordeste 0 -- -- 83
2020-01-10 20:00:00 6.1 8 Nordeste 21 Nordeste 0 -- -- 82
2020-01-10 19:00:00 7.2 10 Nordeste 24 Nordeste 0 -- -- 79
2020-01-10 18:00:00 9 12 Nordeste 25 Nordeste 0 -- -- 68
2020-01-10 17:00:00 9.7 13 Nordeste 26 Norte 0 -- -- 67
2020-01-10 16:00:00 10.2 10 Nordeste 27 Nordeste 0 -- -- 72
2020-01-10 15:00:00 10.1 8 Este 23 Nordeste 0 -- -- 75
2020-01-10 14:00:00 8.8 15 Nordeste 28 Nordeste 0 -- -- 77
2020-01-10 13:00:00 6.9 15 Nordeste 28 Nordeste 0 -- -- 80
2020-01-10 12:00:00 5.8 18 Nordeste 26 Nordeste 0 -- -- 81
2020-01-10 11:00:00 4.5 16 Norte 26 Norte 0 -- -- 87
2020-01-10 10:00:00 3.7 13 Norte 21 Norte 0 -- -- 95
2020-01-10 09:00:00 3 8 Norte 21 Norte 0 -- -- 98
2020-01-10 08:00:00 3.5 8 Nordeste 20 Norte 0 -- -- 98
2020-01-10 07:00:00 4.3 11 Norte 18 Norte 0 -- -- 98
2020-01-10 06:00:00 5 9 Norte 22 Nordeste 0 -- -- 97
2020-01-10 05:00:00 -- 13 Norte 23 Norte 0 -- -- --
2020-01-10 04:00:00 7.3 10 Norte 25 Norte 0 -- -- 91
2020-01-10 03:00:00 8.2 8 Norte 21 Noroeste 0 -- -- 92
2020-01-10 02:00:00 9.1 9 Noroeste 22 Noroeste 0 -- -- 91
2020-01-10 01:00:00 9.3 10 Noroeste 25 Norte 0 -- -- 93
2020-01-10 00:00:00 9.7 5 Norte 28 Noroeste 0 -- -- 92
2020-01-09 23:00:00 9.8 10 Noroeste 28 Norte 0 -- -- 90
2020-01-09 22:00:00 9.1 16 Norte 29 Noroeste 0 -- -- 76
2020-01-09 21:00:00 9.3 6 Norte 14 Noroeste 0 -- -- 66
2020-01-09 20:00:00 9.4 10 Norte 18 Norte 0 -- -- 71
2020-01-09 19:00:00 9.6 9 Norte 17 Norte 0 -- -- 73
2020-01-09 18:00:00 11.6 6 Noroeste 12 Norte 0 -- -- 67
2020-01-09 17:00:00 13 5 Sudoeste 11 Sudoeste 0 -- -- 65
2020-01-09 16:00:00 13.5 4 Sudoeste 23 Oeste 0 -- -- 64
2020-01-09 15:00:00 12.5 5 Sur 14 Sudoeste 0 -- -- 68
2020-01-09 14:00:00 11.5 5 Sudoeste 13 Oeste 0 -- -- 73
2020-01-09 13:00:00 10.5 8 Sudoeste 15 Sudoeste 0 -- -- 77
2020-01-09 12:00:00 10 8 Sudoeste 13 Sudoeste 0 -- -- 78
2020-01-09 11:00:00 9 7 Oeste 15 Sudoeste 0 -- -- 79
2020-01-09 10:00:00 7 7 Sudoeste 13 Sudoeste 0 -- -- 81
2020-01-09 09:00:00 6.7 5 Oeste 11 Noroeste 0 -- -- 83
2020-01-09 08:00:00 6.7 8 Oeste 13 Oeste 0 -- -- 79
2020-01-09 07:00:00 7.1 7 Oeste 13 Oeste 0 -- -- 78
2020-01-09 06:00:00 6.4 5 Oeste 9 Oeste 0 -- -- 72
2020-01-09 05:00:00 5.1 4 Sudoeste 6 Oeste 0 -- -- 69
2020-01-09 04:00:00 5.4 0 Calma 6 Norte 0 -- -- 67
2020-01-09 03:00:00 7.5 6 Nordeste 11 Norte 0 -- -- 54
2020-01-09 02:00:00 6.8 9 Nordeste 12 Norte 0 -- -- 59
2020-01-09 01:00:00 8.4 9 Norte 13 Norte 0 -- -- 46
2020-01-09 00:00:00 7.7 4 Nordeste 12 Nordeste 0 -- -- 71
2020-01-08 23:00:00 9.4 9 Norte 13 Norte 0 -- -- 66
2020-01-08 22:00:00 10.3 5 Norte 14 Norte 0 -- -- 56
2020-01-08 21:00:00 11.1 11 Norte 19 Norte 0 -- -- 50
2020-01-08 20:00:00 11.3 7 Norte 12 Norte 0 -- -- 53
2020-01-08 19:00:00 11.7 6 Norte 8 Norte 0 -- -- 53
2020-01-08 18:00:00 16 0 Calma 10 Sudoeste 0 -- -- 47
2020-01-08 17:00:00 17.5 4 Oeste 8 Sudoeste 0 -- -- 42
2020-01-08 16:00:00 17.9 5 Sur 10 Sudoeste 0 -- -- 42
2020-01-08 15:00:00 16.8 5 Oeste 14 Nordeste 0 -- -- 39
2020-01-08 14:00:00 15.8 9 Nordeste 14 Nordeste 0 -- -- 34
2020-01-08 13:00:00 16.1 5 Nordeste 9 Norte 0 -- -- 36
2020-01-08 12:00:00 14.9 5 Nordeste 9 Nordeste 0 -- -- 39
2020-01-08 11:00:00 13.4 7 Nordeste 10 Nordeste 0 -- -- 40
2020-01-08 10:00:00 10.3 5 Nordeste 9 Nordeste 0 -- -- 45
2020-01-08 09:00:00 8.6 6 Nordeste 17 Nordeste 0 -- -- 55
2020-01-08 08:00:00 8.9 11 Nordeste 18 Nordeste 0 -- -- 47
2020-01-08 07:00:00 9.5 16 Nordeste 20 Nordeste 0 -- -- 48
2020-01-08 06:00:00 9.4 17 Nordeste 20 Nordeste 0 -- -- 51
2020-01-08 05:00:00 9.6 16 Nordeste 22 Nordeste 0 -- -- 50
2020-01-08 04:00:00 9.8 18 Nordeste 22 Nordeste 0 -- -- 53
2020-01-08 03:00:00 10.1 17 Nordeste 21 Nordeste 0 -- -- 56
2020-01-08 02:00:00 9.6 14 Norte 26 Norte 0 -- -- 74
2020-01-08 01:00:00 9.6 18 Norte 27 Norte 0 -- -- 78
2020-01-08 00:00:00 10.2 14 Norte 23 Norte 0 -- -- 68
2020-01-07 23:00:00 10 16 Nordeste 23 Nordeste 0 -- -- 71
2020-01-07 22:00:00 9.9 14 Norte 21 Norte 0 -- -- 71
2020-01-07 21:00:00 10.4 12 Norte 17 Nordeste 0 -- -- 69
2020-01-07 20:00:00 10.8 13 Nordeste 17 Norte 0 -- -- 65
2020-01-07 19:00:00 11.3 11 Nordeste 14 Nordeste 0 -- -- 62
2020-01-07 18:00:00 12.8 10 Norte 14 Nordeste 0 -- -- 58
2020-01-07 17:00:00 14.7 7 Nordeste 17 Nordeste 0 -- -- 53
2020-01-07 16:00:00 14.9 12 Norte 19 Nordeste 0 -- -- 52
2020-01-07 15:00:00 14.7 12 Nordeste 19 Nordeste 0 -- -- 59
2020-01-07 14:00:00 14.3 12 Nordeste 18 Nordeste 0 -- -- 50
2020-01-07 13:00:00 13.5 13 Nordeste 20 Nordeste 0 -- -- 55
2020-01-07 12:00:00 11.9 15 Nordeste 21 Nordeste 0 -- -- 63
2020-01-07 11:00:00 11 13 Nordeste 18 Nordeste 0 -- -- 69
2020-01-07 10:00:00 9 3 Nordeste 13 Nordeste 0 -- -- 68
2020-01-07 09:00:00 6.1 6 Nordeste 11 Norte 0 -- -- 80
2020-01-07 08:00:00 5.9 8 Nordeste 12 Nordeste 0 -- -- 79
2020-01-07 07:00:00 7.7 11 Nordeste 21 Nordeste 0 -- -- 74
2020-01-07 06:00:00 8.2 13 Nordeste 21 Nordeste 0 -- -- 74
2020-01-07 05:00:00 8 15 Nordeste 21 Nordeste 0 -- -- 71
2020-01-07 04:00:00 7.9 13 Nordeste 17 Nordeste 0 -- -- 71
2020-01-07 03:00:00 8 14 Nordeste 18 Nordeste 0 -- -- 71
2020-01-07 02:00:00 8.1 12 Nordeste 21 Norte 0 -- -- 74
2020-01-07 01:00:00 7.9 17 Nordeste 23 Nordeste 0 -- -- 81
2020-01-07 00:00:00 8 15 Nordeste 23 Norte 0 -- -- 81
2020-01-06 23:00:00 8.3 15 Norte 22 Norte 0 -- -- 78
2020-01-06 22:00:00 8.8 17 Norte 22 Norte 0 -- -- 77
2020-01-06 21:00:00 9 10 Norte 15 Norte 0 -- -- 74
2020-01-06 20:00:00 9.4 9 Nordeste 12 Nordeste 0 -- -- 76
2020-01-06 19:00:00 9.5 8 Nordeste 10 Nordeste 0 -- -- 73
2020-01-06 18:00:00 12.1 5 Norte 10 Nordeste 0 -- -- 63
2020-01-06 17:00:00 13.4 6 Norte 13 Norte 0 -- -- 61
2020-01-06 16:00:00 13.9 5 Nordeste 10 Nordeste 0 -- -- 60
2020-01-06 15:00:00 13.3 5 Este 10 Norte 0 -- -- 63
2020-01-06 14:00:00 12.3 6 Nordeste 13 Norte 0 -- -- 69
2020-01-06 13:00:00 12.4 3 Sur 11 Sudoeste 0 -- -- 72
2020-01-06 12:00:00 11.7 3 Sudoeste 6 Sur 0 -- -- 74
2020-01-06 11:00:00 9.6 4 Sudoeste 8 Oeste 0 -- -- 79
2020-01-06 10:00:00 7.1 0 Calma 5 Este 0 -- -- 91